Find Starlink 4666

NORAD ID: 53789 Int'l Des: 2022-111 Owner: SPXS Country: US Constellation: starlink operational
LEOCIRCULAR

Live-Position

3D-Globus wird geladen...

Über Starlink 4666

Beschreibung wird geladen...

Nächste Überflüge

Passes for default location (London). Set your location on the main map for personalized predictions.

Höhenverlauf

Loading altitude history...

Zweizeiliger Elementsatz

1 53789U 22111S 26120.97668697 .00006421 00000-0 42111-3 0 9993
2 53789 53.2176 39.1162 0001973 98.0685 262.0531 15.08846635201587
Epoch: 30. Apr. 2026 • Age: 24 hours

Aktueller Status

Höhe 550.1 km
Geschwindigkeit 7.59 km/s
Subsatellitenpunkt -30.58°S, 162.04°E
Startdatum 11. Sept. 2022
Alter 3.6 years
Typ internet

Technische Details

Klassifizierung Payload
Masse 305.00 kg
Trockenmasse 290.00 kg
Gesamtmasse 305.00 kg
Länge 0.20 m
Durchmesser 2.80 m
Spannweite 9.00 m
Form Box + pan
Hersteller SPXS
Bus-Typ Starlink
Phasenstatus In Orbit
Besitzer/Staat SPXS/US

Most Searched